SCOUT A R/B, 2755

Orbit data source: Space-Track

SCOUT A R/B, 2755 is space debris in LEO originally from a launch on Fri, 14 Apr 1967 UTC launched from the Air Force Western Test Range (AFWTR). Debris objects in space refer to the collection of defunct objects orbiting the Earth. Examples of debris include non-operational satellites, rocket bodies, and fragments generated from explosions, collisions, or faulty payload assembly.

Loading next visibility...
Identifier
2755, 1967-034B
Orbit
LEO
Last TLE update
4 hours ago
Origin
Manufacturer
ABL
Mission
Spacecraft
Bus & Motor
ALTAIR, Unknown motor
Mass
33 kg wet, 33 kg dry
Launch date (UTC)
1967-04-14 (58 years ago)
Launch vehicle
Unknown
Launch site
Air Force Western Test Range (AFWTR)
Object type
Payload
Rocket body
Debris
Shape & HBR
Cyl, 1.5 m
Radar Cross Section
0.687 m², Medium (>0.1 m² and < 1m²)

Expand to show TLE details & history

TLE from 4 hours ago
0 SCOUT A R/B
1  2755U 67034B   25182.57453372 -.00000013  00000-0 -31458-4 0  9994
2  2755  90.2571  46.6962 0023890 294.9770 125.4892 13.53974827875121
Epoch: 2025-07-01T13:47Z
TLE epoch observation values (Epoch: 2025-07-01T13:47:19.713Z)
Latitude
60.77653°
Longitude
-80.4612°
Altitude
1,078.465 km
Speed
7.313 km/s
True Right ascension
03h 04m 57s
True Declination
60° 38' 10"
Sunlit
Object was in daylight at epoch
Visualization orbit readout
Latitude
-13.02505°
Longitude
99.94143°
Altitude
1,066.778 km
Speed
7.316 km/s
Apparent Right ascension
16h 07m 29s
Apparent Declination
-26° 29' 53"
Sunlit
Object is in full shadow
Visualization observer readout
Local Sidereal Time
05:39:03
Azimuth
61.782° ENE
Elevation
-66.727°
Doppler factor
1
Orbital elements
Apogee altitude
1,072.471 km
Perigee altitude
1,036.957 km
Semi-major axis
7,432.851 km
Eccentricity
0.00239
Inclination
90.2571°
RAAN
46.6962°
Arg. of periapsis
294.977°
True anomaly
Unknown
Mean anomaly
125.4892°
Eccentric anomaly
Unknown
Mean motion
3.38696 °/min
Orbital period
106.29 mins
BSTAR
-0.000031458
Loading maneuver chart data...
Loading SW <> Apogee altitude chart data...
Loading historical data...
Loading historical data...
Loading historical data...
Loading historical data...
Loading historical data...
Loading historical data...
Loading historical data...

SCOUT A R/B Visibility forecast

Observer location: undefined°, undefined°

Span
Click to sort rows by Start time (UTC) header in descending order
Start Az.
Max El. time (UTC)
Max El. Az.
Max El.
End time (UTC)
End Az.
11 mins2025-07-02 02:30:22.291Z21.727° NNE2025-07-02 02:35:22.291Z77.037° E31.146°2025-07-02 02:41:22.291Z149.696° SSE
10 mins2025-07-02 04:17:22.291Z337.405° NNW2025-07-02 04:21:22.291Z290.257° WNW29.419°2025-07-02 04:27:22.291Z221.539° SW
9 mins2025-07-02 14:27:22.291Z132.543° SE2025-07-02 14:31:22.291Z78.853° E30.929°2025-07-02 14:36:22.291Z18.357° NNE
10 mins2025-07-02 16:13:22.291Z221.163° SW2025-07-02 16:17:22.291Z273.25° WNW29.669°2025-07-02 16:23:22.291Z339.427° N
|